HB9EFX-14 Weather Reports


Display with metric or nautical units.
time (UTC)temp
F
wind
direction
speed
MPH
gust
MPH
rain 1hr
in
rain 24hr
in
rain mn
in
humidity
%
barometer
mb
20260502180711 69 98 2.0 2.0 0.00 0.00 0.00 42 1016.8
20260502163703 77 101 2.0 4.0 0.00 0.00 0.00 35 1017.0
20260502162704 80 101 2.0 2.0 0.00 0.00 0.00 32 1017.0
20260502161704 80 97 1.0 2.0 0.00 0.00 0.00 33 1017.2
20260502160701 81 59 1.0 3.0 0.00 0.00 0.00 33 1017.1
20260502151657 83 71 1.0 3.0 0.00 0.00 0.00 32 1017.6
20260502150657 82 9 3.0 5.0 0.00 0.00 0.00 32 1017.6
20260502130649 79 32 2.0 3.0 0.00 0.00 0.00 35 1019.1
20260502123646 78 26 2.0 3.0 0.00 0.00 0.00 38 1019.6
20260502122646 73 21 1.0 3.0 0.00 0.00 0.00 42 1019.6
20260502121646 74 357 1.0 4.0 0.00 0.00 0.00 42 1019.7
20260502120646 74 40 2.0 2.0 0.00 0.00 0.00 43 1020.0
20260502115643 71 153 1.0 4.0 0.00 0.00 0.00 45 1020.2
20260502114644 71 307 1.0 5.0 0.00 0.00 0.00 44 1020.2
20260502113643 71 35 0.0 2.0 0.00 0.00 0.00 45 1020.4
20260502112643 72 338 1.0 3.0 0.00 0.00 0.00 43 1020.5
20260502111643 70 163 0.0 4.0 0.00 0.00 0.00 44 1020.6
20260502110640 71 336 2.0 4.0 0.00 0.00 0.00 42 1020.7
20260502105640 73 116 2.0 4.0 0.00 0.00 0.00 42 1020.9
20260502104640 72 45 0.0 3.0 0.00 0.00 0.00 44 1021.1
20260502103641 69 345 2.0 5.0 0.00 0.00 0.00 48 1021.4
20260502102640 68 5 1.0 2.0 0.00 0.00 0.00 50 1021.4
20260502101637 68 281 0.0 5.0 0.00 0.00 0.00 51 1021.4
20260502100637 68 338 2.0 3.0 0.00 0.00 0.00 50 1021.6
20260502090635 66 93 1.0 4.0 0.00 0.00 0.00 50 1022.3
20260502070627 62 351 0.0 2.0 0.00 0.00 0.00 52 1022.4
20260502065624 62 117 2.0 2.0 0.00 0.00 0.00 52 1022.5
20260502064624 61 143 2.0 3.0 0.00 0.00 0.00 53 1022.5
20260502063624 60 129 2.0 3.0 0.00 0.00 0.00 55 1022.4
20260502062624 60 162 1.0 3.0 0.00 0.00 0.00 56 1022.4
20260502061624 58 102 3.0 4.0 0.00 0.00 0.00 59 1022.2
20260502060621 57 104 2.0 4.0 0.00 0.00 0.00 62 1022.4
20260502055621 54 111 4.0 7.0 0.00 0.00 0.00 69 1022.3
20260502054621 52 95 2.0 4.0 0.00 0.00 0.00 72 1022.3
20260502053621 51 89 5.0 9.0 0.00 0.00 0.00 74 1022.3
20260502052621 50 93 4.0 7.0 0.00 0.00 0.00 76 1022.0
20260502051618 50 100 3.0 3.0 0.00 0.00 0.00 75 1022.0
20260502050618 49 120 4.0 5.0 0.00 0.00 0.00 77 1022.0
20260502045617 48 89 3.0 5.0 0.00 0.00 0.00 76 1021.9
20260502044618 47 91 4.0 5.0 0.00 0.00 0.00 78 1022.1
20260502043618 46 95 3.0 5.0 0.00 0.00 0.00 79 1021.9
20260502042614 48 94 4.0 7.0 0.00 0.00 0.00 75 1022.0
20260502041615 47 126 5.0 6.0 0.00 0.00 0.00 76 1021.8
20260502040615 48 97 3.0 4.0 0.00 0.00 0.00 75 1021.8
20260502035615 48 111 4.0 7.0 0.00 0.00 0.00 74 1022.0
20260502034615 48 114 2.0 6.0 0.00 0.00 0.00 72 1022.0
20260502033612 48 96 5.0 7.0 0.00 0.00 0.00 74 1021.9
20260502032612 48 91 3.0 4.0 0.00 0.00 0.00 73 1022.0
20260502031613 47 136 4.0 5.0 0.00 0.00 0.00 74 1022.0
20260502030612 47 99 2.0 6.0 0.00 0.00 0.00 75 1021.8
20260502025614 47 107 4.0 6.0 0.00 0.00 0.00 75 1021.9
20260502024609 47 99 3.0 5.0 0.00 0.00 0.00 74 1021.7
20260502023610 47 97 3.0 5.0 0.00 0.00 0.00 74 1022.0
20260502022609 47 103 3.0 4.0 0.00 0.00 0.00 73 1022.0
20260502021609 46 98 4.0 5.0 0.00 0.00 0.00 75 1021.9
20260502020609 47 99 4.0 4.0 0.00 0.00 0.00 73 1021.9
20260502015606 47 101 4.0 5.0 0.00 0.00 0.00 72 1022.1
20260502014606 47 96 4.0 6.0 0.00 0.00 0.00 71 1022.2
20260502013607 47 97 4.0 4.0 0.00 0.00 0.00 71 1022.0
20260502012606 46 101 5.0 5.0 0.00 0.00 0.00 72 1022.1
20260502011606 46 96 5.0 6.0 0.00 0.00 0.00 70 1022.1
20260502010604 46 96 4.0 6.0 0.00 0.00 0.00 70 1022.0
20260502005603 47 98 4.0 7.0 0.00 0.00 0.00 68 1022.1
20260502004604 47 92 3.0 6.0 0.00 0.00 0.00 67 1022.1
20260502003603 48 100 4.0 5.0 0.00 0.00 0.00 66 1022.2
20260502002603 49 98 4.0 4.0 0.00 0.00 0.00 65 1022.1
20260502001600 50 92 3.0 4.0 0.00 0.00 0.00 62 1022.2
20260502000600 50 95 3.0 4.0 0.00 0.00 0.00 60 1022.2
20260501235559 49 98 5.0 6.0 0.00 0.00 0.00 62 1022.2
20260501234559 48 96 4.0 6.0 0.00 0.00 0.00 66 1022.2
20260501233559 48 102 4.0 4.0 0.00 0.00 0.00 66 1022.1
20260501232557 47 94 4.0 5.0 0.00 0.00 0.00 67 1022.3
20260501231557 47 100 5.0 6.0 0.00 0.00 0.00 68 1022.4
20260501230557 47 99 5.0 6.0 0.00 0.00 0.00 67 1022.2
20260501225557 48 98 5.0 6.0 0.00 0.00 0.00 64 1022.1
20260501224558 48 93 4.0 6.0 0.00 0.00 0.00 64 1022.1
20260501223554 50 96 4.0 6.0 0.00 0.00 0.00 61 1022.3
20260501222553 50 95 4.0 5.0 0.00 0.00 0.00 60 1022.4
20260501221553 51 102 4.0 5.0 0.00 0.00 0.00 59 1022.2
20260501220554 52 94 3.0 5.0 0.00 0.00 0.00 54 1022.3
20260501215554 53 89 3.0 5.0 0.00 0.00 0.00 52 1022.3
20260501214550 52 98 4.0 5.0 0.00 0.00 0.00 56 1022.3
20260501213550 53 97 5.0 6.0 0.00 0.00 0.00 55 1022.3
20260501212550 51 98 5.0 6.0 0.00 0.00 0.00 56 1022.5
20260501211550 53 99 5.0 5.0 0.00 0.00 0.00 54 1022.4
20260501210550 55 117 2.0 3.0 0.00 0.00 0.00 52 1022.3
20260501205547 55 94 2.0 4.0 0.00 0.00 0.00 50 1022.5
20260501204548 55 86 3.0 4.0 0.00 0.00 0.00 49 1022.3
20260501203547 56 94 3.0 5.0 0.00 0.00 0.00 47 1022.2
20260501202547 57 82 2.0 3.0 0.00 0.00 0.00 47 1022.2
20260501201547 56 84 2.0 3.0 0.00 0.00 0.00 47 1022.5
20260501200544 56 82 2.0 3.0 0.00 0.00 0.00 49 1022.4
20260501195545 56 86 2.0 3.0 0.00 0.00 0.00 48 1022.1
20260501194545 57 80 2.0 3.0 0.00 0.00 0.00 47 1022.1
20260501193545 57 96 2.0 3.0 0.00 0.00 0.00 46 1022.0
20260501192544 58 89 2.0 3.0 0.00 0.00 0.00 45 1021.9
20260501191541 59 99 2.0 3.0 0.00 0.00 0.00 42 1022.0
20260501190541 60 94 2.0 3.0 0.00 0.00 0.00 41 1022.0
20260501185541 60 96 3.0 3.0 0.00 0.00 0.00 39 1021.9
20260501184541 61 88 2.0 4.0 0.00 0.00 0.00 38 1021.8
20260501183542 63 94 3.0 4.0 0.00 0.00 0.00 37 1021.8
20260501182538 64 92 3.0 4.0 0.00 0.00 0.00 36 1021.9
20260501181538 66 110 3.0 4.0 0.00 0.00 0.00 33 1021.8